Regional Weather Roundup
Issued by NWS

Home | Current Version | Previous Version | Graphics & Text | Print | Product List | Glossary Off
Versions: 1 2 3 4 5 6 7 8 9 10 11 12 13 14 15 16 17 18 19 20 21 22 23 24 25 26 27 28 29 30 31 32 33 34 35 36 37 38 39 40 41 42 43 44 45 46 47 48 49 50

000
ASUS43 KMPX 281010
RWRMN
WEATHER ROUNDUP FOR MINNESOTA
NATIONAL WEATHER SERVICE TWIN CITIES/CHANHASSEN MN
500 AM CDT TUE JUL 28 2015


NOTE: "FAIR" INDICATES FEW OR NO CLOUDS BELOW 12,000 FEET WITH NO
SIGNIFICANT WEATHER AND/OR OBSTRUCTIONS TO VISIBILITY. N/A MEANS
CURRENT SKY AND/OR WEATHER CONDITIONS ARE NOT AVAILABLE.

MNZ060>063-068>070-281100-
   Twin Cities Metro

CITY           SKY/WX    TMP DP  RH WIND       PRES   REMARKS
TWIN CITIES    MOCLDY    74  70  87 SE12      29.80F
ST PAUL        PTCLDY    74  70  87 SE13      29.81F
CRYSTAL        MOCLDY    76  70  82 SE15      29.77F
BLAINE         MOCLDY    75  73  94 SE10      29.79F
LAKEVILLE      MOCLDY    70  70 100 SE7       29.83S
EDEN PRAIRIE   CLOUDY    75  71  87 SE14      29.79F
SOUTH ST PAUL  MOCLDY    73  70  88 SE8       29.81F
LAKE ELMO      FAIR      73  70  88 SE9G18    29.83F
$$
MNZ001>005-007-008-013>017-022>024-027-028-281100-
   Northwest Minnesota

CITY           SKY/WX    TMP DP  RH WIND       PRES   REMARKS
BEMIDJI        CLOUDY    73  69  88 SE14      29.73S
HALLOCK        CLOUDY    73  72  94 SE13G20   29.57F
ROSEAU         MOCLDY    73  68  83 SE8       29.66F
WARROAD        CLOUDY    72  70  94 E8        29.69F
THIEF RVR FALL CLOUDY    73  70  88 SE14      29.65S
CROOKSTON      CLOUDY    75  72  88 S17       29.64R
FOSSTON        CLOUDY    73  68  83 S13G22    29.69R
DETROIT LAKES  TSTM      72  70  94 S16G22    29.74R
MOORHEAD       RAIN      72  70  94 SE17G23   29.69S
PARK RAPIDS    CLOUDY    74  68  81 S13       29.76R
MAHNOMEN       CLOUDY    74  69  83 S16G25    29.70R
$$
MNZ006-009>011-018-025>026-281100-
   North Central Minnesota

CITY           SKY/WX    TMP DP  RH WIND       PRES   REMARKS
BAUDETTE       MOCLDY    71  67  87 SE10      29.72F
FLAG ISLAND    CLEAR     75  70  83 SE18G25   29.69F
INTL FALLS     PTCLDY    69  66  90 SE9       29.77F
WASKISH        CLOUDY    72  70  94 SE7       29.73F
BIG FORK       PTCLDY    72  66  83 SE7       29.79S
LONGVILLE      CLOUDY    72  70  94 SE8       29.78S
GRAND RAPIDS   CLOUDY    70  66  88 SE12G17   29.80F
CRANE LAKE     CLEAR     61  61 100 SE2       29.84F
ORR            CLEAR     66  63  88 CALM      29.80S
COOK           CLEAR     68  64  88 E3        29.84S
WALKER         PTSUNNY   73  68  86 SE9       29.74F
$$
MNZ012-019>021-037-281100-
   Northeast Minnesota

CITY           SKY/WX    TMP DP  RH WIND       PRES   REMARKS
DULUTH         PTCLDY    70  65  84 SE9       29.86F
ELY            CLEAR     66  63  88 SE6       29.87F
HIBBING        CLEAR     67  64  90 SE8       29.83F
EVELETH        CLEAR     68  63  83 SE6       29.87R
DULUTH HARBOR  CLEAR     72  68  88 NE3       29.85S
TWO HARBORS    CLEAR     66  63  88 CALM      29.87S
SILVER BAY     PTCLDY    68  64  88 NE3       29.87F
GRAND MARAIS     N/A     59  56  89 NE5       29.90S
G MARAIS ARPRT   N/A     64  57  77 SE3       29.95F
$$
MNZ029>031-032-039>041-046>048-054>057-064-281100-
   West Central Minnesota

CITY           SKY/WX    TMP DP  RH WIND       PRES   REMARKS
FERGUS FALLS   RAIN      70  70 100 S9        29.72F
WHEATON        RAIN      64  64 100 CALM      29.68F
MORRIS         RAIN      70  70 100 NE12G17   29.71F
ALEXANDRIA     RAIN      66  65  96 S15       29.80F FOG
ELBOW LAKE     RAIN      68  67  99 S9        29.75F
WADENA         TSTM      72  66  83 S10       29.77R
GLENWOOD       TSTM      66  66 100 N6        29.77F
APPLETON       RAIN      72  66  83 S10G16    29.71S
BENSON         RAIN      70  66  88 W12       29.71F
ORTONVILLE     LGT RAIN  70  66  88 NW6       29.66F
MADISON        TSTM      70  66  88 W5        29.72F
WILLMAR        TSTM      70  70 100 SW8G22    29.79R
$$
MNZ033>034-036-042>043-049>051-058-059-281100-
   Central Minnesota

CITY           SKY/WX    TMP DP  RH WIND       PRES   REMARKS
ST CLOUD       CLOUDY    74  70  87 SE12      29.74F
SAUK CENTRE    TSTM      69  68  98 N14       29.74F VSB 1/2
PAYNESVILLE    TSTM      70  67  90 E17G25    29.72F
AITKIN         CLOUDY    75  68  78 S10G18    29.81R
PINE RIVER     CLOUDY    73  70  88 SE10G16   29.82R
BRAINERD       CLOUDY    73  69  87 SE8G20    29.79S
STAPLES        CLOUDY    72  68  88 S10       29.78R THUNDER
LONG PRAIRIE   TSTM      70  66  88 S9        29.80R
LITTLE FALLS   CLOUDY    72  68  88 SE7       29.77R
LITCHFIELD     CLOUDY    75  70  83 SE14G22   29.73F THUNDER
BUFFALO        CLOUDY    74  68  81 SE8G16    29.78F
MAPLE LAKE     CLOUDY    75  72  88 SE9       29.77F
$$
MNZ037-044-045-052-053-281100-
   East Central Minnesota

CITY           SKY/WX    TMP DP  RH WIND       PRES   REMARKS
PRINCETON      CLOUDY    75  72  88 E8        29.78F
MORA           MOCLDY    70  68  94 SE7       29.84S
CAMBRIDGE      MOCLDY    75  64  69 SE8G17    29.79F
RUSH CITY      PTCLDY    72  69  90 SE9       29.82F
MOOSE LAKE     PTCLDY    70  68  94 SE3       29.81F
HINCKLEY       FAIR      70  70 100 CALM      29.83F
CLOQUET        CLEAR     68  64  88 E6        29.84F
MCGREGOR       CLOUDY    72  68  88 S10       29.82S
$$
MNZ071>073-080-081-089-090-097-098-281100-
   Southwest Minnesota

CITY           SKY/WX    TMP DP  RH WIND       PRES   REMARKS
MONTEVIDEO     TSTM      70  68  94 SW5       29.77R
GRANITE FALLS  TSTM      70  68  93 SW8       29.80S
CANBY          TSTM      69  67  93 SE6       29.76F
MARSHALL       CLOUDY    70  64  83 SW7       29.82F
REDWOOD FALLS  TSTM      72  68  87 W16G30    29.78R
OLIVIA         TSTM      70  64  83 SW17G26   29.78R
PIPESTONE      RAIN      66  64  94 SE3       29.84F
WINDOM         CLOUDY    73  68  83 SW12      29.85R
WORTHINGTON    CLOUDY    72  66  83 NW7       29.86R THUNDER
JACKSON        CLOUDY    72  70  94 S12G17    29.80R
TRACY          CLOUDY    70  68  94 SW12      29.84R
SLAYTON        TSTM      67  66  97 W14       29.88R
$$
MNZ065>067-074>077-082>085-091>093-281100-
   South Central Minnesota

CITY           SKY/WX    TMP DP  RH WIND       PRES   REMARKS
MANKATO        CLOUDY    73  66  78 SE13      29.81R
NEW ULM        CLOUDY    73  68  83 S10G18    29.77S
ST JAMES       CLOUDY    73  70  88 S12       29.80R
FAIRMONT       CLOUDY    72  64  78 SE18G24   29.79F
GLENCOE        CLOUDY    75  70  83 SE12G18   29.77S
FARIBAULT      MOCLDY    73  70  88 SE12G17   29.85R
OWATONNA       MOCLDY    73  70  88 S13       29.85R
WASECA           N/A    N/A N/A N/A SE16      29.84S
ALBERT LEA     TSTM      70  70 100 S10G17    29.87R
$$
MNZ078>079-086>088-094>096-281100-
   Southeast Minnesota

CITY           SKY/WX    TMP DP  RH WIND       PRES   REMARKS
ROCHESTER      CLEAR     71  69  93 SE10      29.89S
RED WING       PTCLDY    75  70  83 SE12      29.84F
STANTON        PTCLDY    74  69  85 SE9G16    29.81F
DODGE CENTER   PTCLDY    70  68  94 S7        29.87R
WINONA         CLEAR     73  72  94 SE3       29.89F
AUSTIN         MOCLDY    73  70  88 S9        29.88R THUNDER
PRESTON        PTCLDY    70  68  92 SE9       29.90F FOG
$$
ABBREVIATIONS USED IN REMARKS
   TC - TEMPERATURES IN CELSIUS
  WCI - WIND CHILL INDEX
   HX - HEAT INDEX
  VSB - VISIBILITY
$$


USA.gov is the U.S. government's official web portal to all federal, state and local government web resources and services.